Terminal Aerodrome Forecast
Issued by NWS Raleigh/Durham, NC

Home | Current Version | Previous Version | Text Only | Print | Product List | Glossary On
Versions: 1 2 3 4 5 6 7 8 9 10 11 12 13 14 15 16 17 18 19 20 21 22 23 24 25 26 27 28
000
FTUS42 KRAH 301501 AAB
TAFGSO
TAF AMD
KGSO 301501Z 3015/0112 06008KT 5SM BR OVC005
      TEMPO 3015/3016 1 1/2SM -DZ BR OVC004
     FM301600 08006KT P6SM OVC009
      TEMPO 3021/0101 6SM -SHRA SCT020 BKN045
     FM010600 13006KT 4SM -SHRA BR BKN006 OVC100=

USA.gov is the U.S. government's official web portal to all federal, state and local government web resources and services.